[[{"header":{"parameterUnit":"m.s-1","parameterCategory":1,"la1":30.2991,"la2":30.254,"lo1":-89.0895,"lo2":-89.0444,"dy":0.0017,"dx":0.0017,"nx":28,"ny":28,"refTime":"2024-10-18T03:00:00:Z","depth":0,"parameterNumber":2,"parameterNumberName":"U-component_of_WINDS"},"data":[0,0,0,0,0,0,0,0,0,0,0,0,0,0,0,0,0,0,0,0,0,0,0,0,0,0,0,0,0,0,0,0,0,0,0,0,0,0,0,0,0,0,0,0,0,0,0,0,0,0,0,0,0,0,0,0,0,0,-4.1803,-4.1803,0,-4.1792,-4.1792,-4.1792,-4.1637,-4.1633,-4.1629,-4.1625,-4.1615,-4.1619,-4.1622,0,0,0,0,0,0,0,0,0,0,0,0,0,-4.169,-4.1693,-4.1803,-4.1803,-4.1803,-4.1792,-4.1792,-4.1792,-4.1637,-4.1633,-4.1628,-4.1623,-4.1614,-4.1618,-4.1622,0,0,0,0,0,0,0,0,0,0,0,0,0,-4.1716,-4.1694,-4.1803,-4.1725,-4.1717,-4.1792,-4.1792,-4.1792,-4.1638,-4.1633,-4.1627,-4.1621,-4.1613,-4.1618,-4.1623,-4.1773,0,0,-4.1639,-4.1641,0,0,0,0,0,0,0,0,-4.1714,-4.172,-4.1736,-4.173,-4.1722,-4.171,-4.1748,-4.1786,-4.164,-4.1669,-4.1625,-4.1618,-4.1652,-4.1653,-4.1664,-4.1772,-4.1772,-4.1639,-4.1642,-4.1644,-4.1646,0,0,0,0,0,0,0,-4.1713,-4.172,-4.1799,-4.1737,-4.1728,-4.169,-4.1687,-4.1755,-4.1693,-4.1666,-4.1654,-4.1655,-4.1647,-4.166,-4.1663,-4.1772,-4.1639,-4.1643,-4.1647,-4.1649,-4.2001,-4.2007,0,0,0,0,0,0,-4.1722,-4.1719,-4.1799,-4.1798,-4.1704,-4.1697,-4.1693,-4.172,-4.1692,-4.1682,-4.166,-4.1648,-4.1654,-4.1657,-4.1662,-4.1834,-4.1644,-4.1649,-4.1652,-4.1995,-4.2002,-4.2009,0,0,0,0,0,0,-4.172,-4.1731,-4.18,-4.1756,-4.1762,-4.1705,-4.1736,-4.1723,-4.1735,-4.1688,-4.1676,-4.1685,-4.1649,-4.1655,-4.1746,-4.1832,-4.1651,-4.1656,-4.1987,-4.1997,-4.2006,-4.2182,0,0,0,0,0,0,-4.1718,-4.1731,-4.1787,-4.1758,-4.1765,-4.1884,-4.1741,-4.1727,-4.1744,-4.1728,-4.1708,-4.1699,-4.1645,-4.1739,-4.1751,-4.1836,-4.166,-4.1979,-4.1992,-4.2003,-4.2168,-4.2196,-4.222,0,0,0,0,0,-4.1714,-4.1838,-4.1791,-4.1802,-4.1834,-4.189,-4.1893,-4.1828,-4.1752,-4.1808,-4.1777,-4.17,-4.1821,-4.175,-4.1762,-4.1849,-4.1973,-4.1988,-4.2002,-4.2156,-4.219,-4.2219,0,0,0,0,0,0,-4.188,-4.1833,-4.178,-4.1898,-4.1899,-4.1863,-4.1932,-4.1867,-4.189,-4.1874,-4.1792,-4.1789,-4.1893,-4.188,-4.1802,-4.1992,-4.1883,-4.1901,-4.1997,-4.2029,-4.2054,-4.2055,-4.1664,0,0,0,0,0,-4.193,-4.1979,-4.1935,-4.2044,-4.2046,-4.199,-4.2012,-4.1961,-4.1959,-4.1959,-4.1935,-4.1936,-4.1974,-4.2001,-4.2033,-4.2165,-4.2158,-4.2231,-4.2257,-4.2279,-4.2295,-4.2363,-4.2394,-4.2055,-4.2055,-4.2055,0,0,-4.2034,-4.2014,-4.205,-4.2076,-4.2071,-4.2123,-4.1991,-4.2052,-4.209,-4.1968,-4.2052,-4.2035,-4.2031,-4.2143,-4.2191,-4.2136,-4.2387,-4.2297,-4.2315,-4.2318,-4.238,-4.2413,-4.2441,-4.2065,-4.2063,-4.2062,0,0,-4.225,-4.2241,-4.2329,-4.2327,-4.232,-4.2281,-4.2303,-4.2276,-4.226,-4.2343,-4.2252,-4.2296,-4.2364,-4.2364,-4.2373,-4.2589,-4.2518,-4.2602,-4.2738,-4.2805,-4.2831,-4.2855,-4.2931,-4.2959,-4.2618,-4.2618,-4.2619,0,-4.2381,-4.2456,-4.2383,-4.245,-4.2464,-4.2355,-4.2444,-4.2445,-4.245,-4.2461,-4.2399,-4.248,-4.247,-4.258,-4.2633,-4.2644,-4.2666,-4.2604,-4.2833,-4.2856,-4.2877,-4.2948,-4.2977,-4.2628,-4.2627,-4.2626,-4.2625,0,-4.2616,-4.2669,-4.2742,-4.2748,-4.277,-4.2848,-4.2787,-4.2818,-4.2766,-4.2734,-4.2819,-4.2803,-4.2829,-4.2852,-4.2802,-4.2955,-4.2921,-4.2848,-4.2736,-4.292,-4.2986,-4.3013,-4.2643,-4.2639,-4.2636,-4.2634,0,0,-4.2937,-4.2901,-4.2929,-4.2929,-4.2913,-4.2953,-4.3026,-4.3051,-4.3079,-4.3086,-4.3144,-4.3204,-4.3135,-4.3145,-4.3095,-4.3154,-4.3325,-4.3072,-4.3071,-4.3119,-4.3491,-4.3546,-4.3579,-4.3278,-4.3282,-4.3286,-4.3491,0,-4.3145,-4.3266,-4.3202,-4.3332,-4.3379,-4.3276,-4.3339,-4.3336,-4.3308,-4.3345,-4.3314,-4.3357,-4.3264,-4.3269,-4.3323,-4.3293,-4.3398,-4.3277,-4.3331,-4.3334,-4.3334,-4.3613,-4.3672,-4.3866,-4.3517,-4.3521,-4.3524,0,-4.3403,-4.342,-4.3554,-4.3528,-4.3545,-4.3603,-4.362,-4.3657,-4.3651,-4.3627,-4.3638,-4.3573,-4.3642,-4.3533,-4.3627,-4.3546,-4.3564,-4.3553,-4.3559,-4.3561,-4.344,-4.3622,-4.3926,-4.3955,-4.3564,-4.3561,-4.3558,0,-4.3622,-4.3679,-4.3765,-4.3769,-4.3741,-4.3784,-4.3775,-4.3763,-4.3782,-4.3798,-4.3809,-4.3833,-4.3846,-4.3866,-4.3809,-4.3735,-4.3911,-4.3797,-4.3892,-4.3894,-4.3933,-4.3932,-4.4244,-4.3947,-4.3947,-4.3946,-4.3946,0,-4.3861,-4.3947,-4.3863,-4.3917,-4.401,-4.3936,-4.403,-4.4009,-4.4,-4.4048,-4.396,-4.4007,-4.3929,-4.3968,-4.3925,-4.4009,-4.4016,-4.3997,-4.3985,-4.4005,-4.4007,-4.4015,-4.4,-4.3954,-4.3952,-4.3951,-4.3949,0,-4.4121,-4.4069,-4.4156,-4.4122,-4.4116,-4.4186,-4.4156,-4.4204,-4.417,-4.4231,-4.4242,-4.4188,-4.4229,-4.4175,-4.4211,-4.4181,-4.4296,-4.4263,-4.4298,-4.4288,-4.4386,-4.4377,-4.4714,-4.4754,-4.4433,-4.4436,-4.4439,0,-4.4276,-4.434,-4.4312,-4.4337,-4.4332,-4.4374,-4.4392,-4.4322,-4.4345,-4.4343,-4.4392,-4.4425,-4.4448,-4.4519,-4.4484,-4.4511,-4.4478,-4.4594,-4.4482,-4.45,-4.4479,-4.4475,-4.4481,-4.4617,-4.4621,-4.4624,-4.4627,0,-4.4557,-4.4527,-4.4557,-4.4578,-4.4602,-4.4615,-4.4621,-4.4647,-4.4573,-4.4604,-4.4644,-4.4662,-4.4698,-4.4733,-4.4751,-4.4741,-4.4672,-4.4662,-4.4686,-4.4707,-4.4724,-4.4715,-4.436,-4.4655,-4.4652,-4.465,-4.4648,-4.4647,-4.4769,-4.4819,-4.4807,-4.4843,-4.484,-4.4848,-4.4891,-4.4862,-4.4894,-4.4917,-4.4874,-4.4926,-4.4918,-4.4934,-4.4932,-4.4971,-4.4921,-4.4955,-4.4964,-4.4973,-4.4988,-4.4718,-4.4975,-4.4974,-4.4973,-4.4972,-4.4971,0,-4.5044,-4.503,-4.5064,-4.5075,-4.5103,-4.5035,-4.5038,-4.5066,-4.5112,-4.511,-4.5134,-4.5181,-4.5214,-4.5181,-4.5207,-4.5245,-4.5215,-4.5255,-4.5251,-4.525,-4.5031,-4.5008,-4.5279,-4.5279,-4.5279,-4.5279,-4.5279,-4.5279,-4.519,-4.5272,-4.5241,-4.5321,-4.5307,-4.5356,-4.5364,-4.5371,-4.5368,-4.5424,-4.545,-4.5428,-4.5414,-4.5438,-4.5466,-4.5455,-4.5469,-4.552,-4.5499,-4.5295,-4.5265,-4.5236,-4.5214,-4.5524,-4.5524,-4.5713,-4.5715,-4.5716]},{"header":{"parameterUnit":"m.s-1","parameterCategory":1,"la1":30.2991,"la2":30.254,"lo1":-89.0895,"lo2":-89.0444,"dy":0.0017,"dx":0.0017,"nx":28,"ny":28,"refTime":"2024-10-18T03:00:00:Z","depth":0,"parameterNumber":3,"parameterNumberName":"V-component_of_WINDS"},"data":[0,0,0,0,0,0,0,0,0,0,0,0,0,0,0,0,0,0,0,0,0,0,0,0,0,0,0,0,0,0,0,0,0,0,0,0,0,0,0,0,0,0,0,0,0,0,0,0,0,0,0,0,0,0,0,0,0,0,-2.0374,-2.0375,0,-2.0472,-2.0473,-2.0474,-2.0486,-2.0485,-2.0484,-2.0483,-2.0582,-2.0585,-2.0589,0,0,0,0,0,0,0,0,0,0,0,0,0,-2.0195,-2.0198,-2.0374,-2.0375,-2.0377,-2.0472,-2.0473,-2.0474,-2.0486,-2.0485,-2.0484,-2.0482,-2.0581,-2.0585,-2.0589,0,0,0,0,0,0,0,0,0,0,0,0,0,-2.0281,-2.0199,-2.0374,-2.0394,-2.0396,-2.0472,-2.0473,-2.0475,-2.0486,-2.0485,-2.0483,-2.0482,-2.0579,-2.0585,-2.059,-2.0652,0,0,-2.0606,-2.0608,0,0,0,0,0,0,0,0,-2.0276,-2.0287,-2.039,-2.0392,-2.0396,-2.0465,-2.0446,-2.0534,-2.0486,-2.0452,-2.0483,-2.0481,-2.0544,-2.0552,-2.0574,-2.0656,-2.066,-2.0606,-2.061,-2.0612,-2.0613,0,0,0,0,0,0,0,-2.027,-2.0283,-2.0413,-2.0391,-2.0395,-2.0397,-2.0408,-2.0463,-2.0505,-2.0455,-2.0456,-2.0467,-2.0546,-2.0569,-2.0576,-2.0662,-2.0606,-2.0611,-2.0614,-2.0616,-2.0798,-2.08,0,0,0,0,0,0,-2.026,-2.0278,-2.041,-2.0416,-2.0331,-2.0401,-2.0413,-2.0444,-2.0504,-2.0512,-2.0469,-2.0468,-2.056,-2.057,-2.058,-2.0655,-2.0612,-2.0617,-2.062,-2.0797,-2.0799,-2.0801,0,0,0,0,0,0,-2.0257,-2.0272,-2.0406,-2.0347,-2.0364,-2.0406,-2.0441,-2.0447,-2.047,-2.0515,-2.0522,-2.0485,-2.056,-2.0572,-2.0633,-2.0659,-2.0619,-2.0624,-2.0795,-2.0797,-2.08,-2.0807,0,0,0,0,0,0,-2.0251,-2.0271,-2.0295,-2.0348,-2.0368,-2.0458,-2.0442,-2.045,-2.0479,-2.0479,-2.0532,-2.0539,-2.0559,-2.0625,-2.0639,-2.0666,-2.0628,-2.0793,-2.0796,-2.0799,-2.0805,-2.081,-2.0814,0,0,0,0,0,-2.0245,-2.0293,-2.0296,-2.0312,-2.0399,-2.046,-2.0471,-2.0494,-2.0481,-2.0506,-2.0534,-2.0537,-2.0654,-2.0632,-2.0647,-2.0675,-2.0791,-2.0795,-2.0799,-2.0803,-2.0809,-2.0814,0,0,0,0,0,0,-2.0243,-2.0301,-2.0305,-2.0372,-2.0411,-2.0462,-2.0494,-2.0499,-2.0543,-2.0541,-2.0566,-2.0578,-2.0638,-2.0663,-2.0637,-2.0738,-2.0721,-2.0728,-2.0719,-2.0725,-2.073,-2.0723,-2.0633,0,0,0,0,0,-2.025,-2.0295,-2.0343,-2.0398,-2.0417,-2.0452,-2.0479,-2.0493,-2.0534,-2.0551,-2.0584,-2.0624,-2.0669,-2.0699,-2.0743,-2.0808,-2.082,-2.0836,-2.084,-2.0843,-2.0849,-2.0885,-2.0892,-2.0813,-2.0813,-2.0813,0,0,-2.0266,-2.0303,-2.033,-2.0398,-2.043,-2.0475,-2.0466,-2.0514,-2.0548,-2.0558,-2.0618,-2.0643,-2.0689,-2.0753,-2.0782,-2.0775,-2.0873,-2.0848,-2.0851,-2.0855,-2.0889,-2.0897,-2.0903,-2.0815,-2.0815,-2.0814,0,0,-2.0317,-2.035,-2.0399,-2.0431,-2.0479,-2.0502,-2.0513,-2.0563,-2.0581,-2.0641,-2.0649,-2.0689,-2.0767,-2.0799,-2.0826,-2.0888,-2.0892,-2.0902,-2.0925,-2.0959,-2.0966,-2.0971,-2.0993,-2.1001,-2.0907,-2.0907,-2.0907,0,-2.033,-2.04,-2.0423,-2.0471,-2.0501,-2.0512,-2.0561,-2.059,-2.0651,-2.067,-2.0662,-2.0759,-2.0791,-2.0861,-2.0876,-2.0898,-2.0911,-2.0896,-2.0963,-2.0969,-2.0974,-2.0995,-2.1004,-2.0908,-2.0908,-2.0908,-2.0908,0,-2.0413,-2.0461,-2.0494,-2.0552,-2.0585,-2.0634,-2.0663,-2.0694,-2.0704,-2.0727,-2.0788,-2.0826,-2.0878,-2.0896,-2.0907,-2.0968,-2.0962,-2.0958,-2.0942,-2.0982,-2.1003,-2.1011,-2.0909,-2.0909,-2.0909,-2.0908,0,0,-2.0467,-2.0536,-2.0548,-2.0574,-2.0628,-2.0665,-2.0713,-2.0764,-2.0789,-2.083,-2.0871,-2.0936,-2.0932,-2.0962,-2.0976,-2.1007,-2.1052,-2.0999,-2.1,-2.1007,-2.1121,-2.1124,-2.1133,-2.1055,-2.1057,-2.1058,-2.1117,0,-2.0525,-2.0612,-2.0633,-2.0707,-2.0751,-2.0761,-2.0803,-2.084,-2.0863,-2.0903,-2.0927,-2.0973,-2.0965,-2.0983,-2.1013,-2.104,-2.1076,-2.1037,-2.1093,-2.1095,-2.1081,-2.1144,-2.1147,-2.1201,-2.1125,-2.1127,-2.1128,0,-2.0604,-2.0646,-2.0725,-2.0771,-2.0791,-2.0828,-2.0876,-2.0914,-2.0955,-2.097,-2.1002,-2.1014,-2.1063,-2.1044,-2.1113,-2.1086,-2.111,-2.1127,-2.1129,-2.1135,-2.1114,-2.1151,-2.1219,-2.1227,-2.114,-2.1139,-2.1138,0,-2.0635,-2.0711,-2.0768,-2.079,-2.0846,-2.0872,-2.0896,-2.0937,-2.0965,-2.1007,-2.1025,-2.1072,-2.1097,-2.1133,-2.1156,-2.114,-2.1222,-2.1205,-2.1235,-2.1234,-2.1252,-2.1251,-2.1324,-2.1268,-2.1268,-2.1267,-2.1267,0,-2.0697,-2.0744,-2.0783,-2.0817,-2.087,-2.0894,-2.0945,-2.097,-2.1005,-2.1044,-2.1056,-2.1092,-2.1121,-2.1161,-2.1179,-2.1232,-2.1244,-2.1256,-2.1261,-2.1255,-2.1254,-2.1272,-2.1269,-2.127,-2.1269,-2.1269,-2.1268,0,-2.0741,-2.0769,-2.0831,-2.0878,-2.0891,-2.0928,-2.0969,-2.1002,-2.1025,-2.1074,-2.1087,-2.1122,-2.117,-2.1196,-2.1256,-2.1268,-2.1327,-2.133,-2.1314,-2.1315,-2.1343,-2.134,-2.1431,-2.1444,-2.1379,-2.1379,-2.138,0,-2.0779,-2.0816,-2.0867,-2.0894,-2.0919,-2.0963,-2.0992,-2.1016,-2.1046,-2.1095,-2.1123,-2.1171,-2.1211,-2.1286,-2.1316,-2.1362,-2.1365,-2.1394,-2.1372,-2.1366,-2.1366,-2.1363,-2.1367,-2.1398,-2.1398,-2.1399,-2.1399,0,-2.0843,-2.0855,-2.0897,-2.0943,-2.0978,-2.1016,-2.1053,-2.1074,-2.1104,-2.1137,-2.1186,-2.1217,-2.1277,-2.1325,-2.1372,-2.1397,-2.1403,-2.1406,-2.1415,-2.141,-2.1399,-2.1405,-2.1324,-2.1404,-2.1403,-2.1403,-2.1403,-2.1403,-2.0885,-2.0918,-2.0959,-2.1005,-2.1035,-2.107,-2.1103,-2.113,-2.1171,-2.1222,-2.1234,-2.1285,-2.1324,-2.1389,-2.1415,-2.1455,-2.1449,-2.1463,-2.1466,-2.1469,-2.147,-2.1392,-2.1463,-2.1463,-2.1463,-2.1463,-2.1463,0,-2.095,-2.0977,-2.1019,-2.107,-2.1106,-2.1109,-2.115,-2.1179,-2.1224,-2.1261,-2.1299,-2.1355,-2.14,-2.1434,-2.1481,-2.1506,-2.151,-2.1517,-2.1516,-2.1521,-2.1472,-2.1459,-2.1513,-2.1513,-2.1513,-2.1513,-2.1513,-2.1513,-2.0988,-2.1043,-2.1059,-2.1129,-2.1155,-2.1205,-2.1228,-2.126,-2.1289,-2.135,-2.1388,-2.141,-2.1445,-2.1494,-2.1536,-2.1544,-2.1561,-2.1568,-2.1577,-2.153,-2.1525,-2.152,-2.1508,-2.1571,-2.1571,-2.1623,-2.1623,-2.1623]}]]